This is the latest recevied weather packets stored in our database for station/object W5COG. If no packets are shown the sender has not sent any weather packets the latest 10 day(s).
| Time | Temp. | Humidity | Pressure | Rain* | Wind** | Luminosity | Snow |
|---|---|---|---|---|---|---|---|
| 1777555526 | 10.56° C | 77% | 1018.5 hPa | 0 mm | - | 192 W/m² | - |
| 1777555226 | 10.56° C | 77% | 1018.5 hPa | 0 mm | - | 166 W/m² | - |
| 1777554926 | 10.56° C | 77% | 1018.6 hPa | 0 mm | - | 139 W/m² | - |
| 1777554626 | 10.56° C | 76% | 1018.7 hPa | 0 mm | - | 114 W/m² | - |
| 1777554326 | 10.56° C | 76% | 1018.6 hPa | 0 mm | - | 93 W/m² | - |
| 1777554026 | 10.56° C | 76% | 1018.7 hPa | 0 mm | - | 86 W/m² | - |
| 1777553726 | 10° C | 76% | 1018.7 hPa | 0 mm | - | 90 W/m² | - |
| 1777552526 | 10° C | 79% | 1017.9 hPa | 0 mm | - | 86 W/m² | - |
| 1777552226 | 10° C | 79% | 1017.9 hPa | 0 mm | - | 100 W/m² | - |
| 1777551926 | 10° C | 79% | 1017.7 hPa | 0 mm | - | 79 W/m² | - |
| 1777551626 | 9.44° C | 79% | 1017.8 hPa | 0 mm | - | 64 W/m² | - |
| 1777551326 | 9.44° C | 79% | 1017.7 hPa | 0 mm | - | 53 W/m² | - |
| 1777551026 | 9.44° C | 80% | 1017.6 hPa | 0 mm | - | 50 W/m² | - |
| 1777550726 | 9.44° C | 80% | 1017.6 hPa | 0 mm | - | 40 W/m² | - |
| 1777550426 | 9.44° C | 81% | 1017.6 hPa | 0 mm | - | 36 W/m² | - |
| 1777550126 | 9.44° C | 81% | 1017.5 hPa | 0 mm | - | 31 W/m² | - |
| 1777549826 | 9.44° C | 81% | 1017.4 hPa | 0 mm | - | 23 W/m² | - |
| 1777549526 | 9.44° C | 81% | 1017.6 hPa | 0 mm | - | 11 W/m² | - |
| 1777548626 | 9.44° C | 81% | 1017.9 hPa | 0 mm | - | 3 W/m² | - |
| 1777548327 | 9.44° C | 80% | 1017.9 hPa | 0 mm | - | 1 W/m² | - |
| 1777548026 | 9.44° C | 79% | 1017.9 hPa | 0 mm | - | 0 W/m² | - |
| 1777547729 | 10° C | 78% | 1017.9 hPa | 0 mm | - | 0 W/m² | - |
| 1777547426 | 10° C | 79% | 1017.9 hPa | 0 mm | - | 0 W/m² | - |
| 1777547126 | 10° C | 78% | 1017.8 hPa | 0 mm | - | 0 W/m² | - |
| 1777546826 | 10° C | 78% | 1017.9 hPa | 0 mm | - | 0 W/m² | - |
* Rain latest hour (hover to see other rain measurements)
** Current wind speed in m/s (hover to see current wind gust speed)